owner,sensor,date,latitude,longitude,vertical_datum,wind_speed,wind_to_direction,wind_speed_of_gust,qcFlag 
TABS,ioos:station:wmo:42045:1,2019-11-01T04:00:00Z,26.2168,-96.4998,4.0,7.23,6.9,9.64,'11111222,11111222,11111222' 
TABS,ioos:station:wmo:42045:1,2019-11-01T05:00:00Z,26.2168,-96.4998,4.0,7.07,7.8,9.27,'11111222,11111222,11111222' 
TABS,ioos:station:wmo:42045:1,2019-11-01T06:00:00Z,26.2168,-96.4998,4.0,7.1,9.9,9.61,'11111222,11111222,11111222' 
TABS,ioos:station:wmo:42045:1,2019-11-01T07:00:00Z,26.2168,-96.4998,4.0,7.61,2.2,9.68,'11111222,11111222,11111222' 
TABS,ioos:station:wmo:42045:1,2019-11-01T08:00:00Z,26.2168,-96.4998,4.0,6.0,16.4,8.17,'11111222,11111222,11111222' 
TABS,ioos:station:wmo:42045:1,2019-11-01T09:00:00Z,26.2168,-96.4998,4.0,5.34,22.9,7.99,'11111222,11111222,11111222' 
TABS,ioos:station:wmo:42045:1,2019-11-01T10:00:00Z,26.2168,-96.4998,4.0,4.73,22.5,6.36,'11111222,11111222,11111222' 
TABS,ioos:station:wmo:42045:1,2019-11-01T10:30:00Z,26.2168,-96.4998,4.0,4.74,26.1,7.21,'11111222,11111222,11111222' 
TABS,ioos:station:wmo:42045:1,2019-11-01T12:00:00Z,26.2168,-96.4998,4.0,4.5,28.3,5.89,'11111222,11111222,11111222' 
TABS,ioos:station:wmo:42045:1,2019-11-01T13:00:00Z,26.2168,-96.4998,4.0,3.94,24.1,6.32,'11111222,11111222,11111222' 
TABS,ioos:station:wmo:42045:1,2019-11-01T14:00:00Z,26.2168,-96.4998,4.0,3.68,32.3,5.64,'11111222,11111222,11111222' 
TABS,ioos:station:wmo:42045:1,2019-11-01T15:00:00Z,26.2168,-96.4998,4.0,3.81,31.3,5.75,'11111222,11111222,11111222' 
TABS,ioos:station:wmo:42045:1,2019-11-01T16:00:00Z,26.2168,-96.4998,4.0,3.52,25.5,5.33,'11111222,11111222,11111222' 
TABS,ioos:station:wmo:42045:1,2019-11-01T17:00:00Z,26.2168,-96.4998,4.0,2.69,55.1,4.14,'11111222,11111222,11111222' 
TABS,ioos:station:wmo:42045:1,2019-11-01T17:30:00Z,26.2168,-96.4998,4.0,3.07,32.7,4.74,'11111222,11111222,11111222' 
TABS,ioos:station:wmo:42045:1,2019-11-01T19:00:00Z,26.2168,-96.4998,4.0,3.22,17.8,4.72,'11111222,11111222,11111222' 
TABS,ioos:station:wmo:42045:1,2019-11-01T20:00:00Z,26.2168,-96.4998,4.0,3.12,25.8,5.02,'11111222,11111222,11111222' 
TABS,ioos:station:wmo:42045:1,2019-11-01T20:30:00Z,26.2168,-96.4998,4.0,2.81,34.2,4.87,'11111222,11111222,11111222' 
TABS,ioos:station:wmo:42045:1,2019-11-01T22:00:00Z,26.2168,-96.4998,4.0,2.97,53.0,4.49,'11111222,11111222,11111222' 
TABS,ioos:station:wmo:42045:1,2019-11-01T23:30:00Z,26.2168,-96.4998,4.0,3.51,55.4,4.76,'11111222,11111222,11111222' 
TABS,ioos:station:wmo:42045:1,2019-11-02T04:00:00Z,26.2168,-96.4998,4.0,3.17,80.7,5.34,'11111222,11111222,11111222' 
TABS,ioos:station:wmo:42045:1,2019-11-02T05:00:00Z,26.2168,-96.4998,4.0,2.57,89.0,3.91,'11111222,11111222,11111222' 
TABS,ioos:station:wmo:42045:1,2019-11-02T06:00:00Z,26.2168,-96.4998,4.0,2.22,100.1,3.41,'11111222,11111222,11111222' 
TABS,ioos:station:wmo:42045:1,2019-11-02T07:00:00Z,26.2168,-96.4998,4.0,2.05,100.4,3.19,'11111222,11111222,11111222' 
TABS,ioos:station:wmo:42045:1,2019-11-02T08:00:00Z,26.2168,-96.4998,4.0,1.68,51.8,2.83,'11111222,11111222,11111222' 
TABS,ioos:station:wmo:42045:1,2019-11-02T09:00:00Z,26.2168,-96.4998,4.0,2.65,49.1,4.12,'11111222,11111222,11111222' 
TABS,ioos:station:wmo:42045:1,2019-11-02T09:30:00Z,26.2168,-96.4998,4.0,3.32,24.0,4.57,'11111222,11111222,11111222' 
TABS,ioos:station:wmo:42045:1,2019-11-02T11:00:00Z,26.2168,-96.4998,4.0,3.42,22.7,4.61,'11111222,11111222,11111222' 
TABS,ioos:station:wmo:42045:1,2019-11-02T12:00:00Z,26.2168,-96.4998,4.0,4.19,25.4,5.93,'11111222,11111222,11111222' 
TABS,ioos:station:wmo:42045:1,2019-11-02T12:30:00Z,26.2168,-96.4998,4.0,4.41,4.8,5.96,'11111222,11111222,11111222' 
TABS,ioos:station:wmo:42045:1,2019-11-02T14:00:00Z,26.2168,-96.4998,4.0,8.21,2.1,9.78,'11111222,11111222,11111222' 
TABS,ioos:station:wmo:42045:1,2019-11-02T15:00:00Z,26.2168,-96.4998,4.0,6.06,4.3,9.65,'11111222,11111222,11111222' 
TABS,ioos:station:wmo:42045:1,2019-11-02T16:00:00Z,26.2168,-96.4998,4.0,8.72,31.7,10.25,'11111222,11111222,11111222' 
TABS,ioos:station:wmo:42045:1,2019-11-02T17:00:00Z,26.2168,-96.4998,4.0,7.93,35.4,9.2,'11111222,11111222,11111222' 
TABS,ioos:station:wmo:42045:1,2019-11-02T17:30:00Z,26.2168,-96.4998,4.0,7.43,36.5,9.28,'11111222,11111222,11111222' 
TABS,ioos:station:wmo:42045:1,2019-11-02T19:00:00Z,26.2168,-96.4998,4.0,6.31,20.4,8.16,'11111222,11111222,11111222' 
TABS,ioos:station:wmo:42045:1,2019-11-02T21:00:00Z,26.2168,-96.4998,4.0,7.89,11.4,9.88,'11111222,11111222,11111222' 
TABS,ioos:station:wmo:42045:1,2019-11-02T22:00:00Z,26.2168,-96.4998,4.0,7.53,5.3,10.36,'11111222,11111222,11111222' 
TABS,ioos:station:wmo:42045:1,2019-11-02T23:00:00Z,26.2168,-96.4998,4.0,6.87,20.8,8.34,'11111222,11111222,11111222' 
TABS,ioos:station:wmo:42045:1,2019-11-02T23:30:00Z,26.2168,-96.4998,4.0,6.92,18.6,8.63,'11111222,11111222,11111222' 
TABS,ioos:station:wmo:42045:1,2019-11-03T04:00:00Z,26.2168,-96.4998,4.0,5.87,55.3,7.93,'11111222,11111222,11111222' 
TABS,ioos:station:wmo:42045:1,2019-11-03T05:00:00Z,26.2168,-96.4998,4.0,5.84,59.0,7.75,'11111222,11111222,11111222' 
TABS,ioos:station:wmo:42045:1,2019-11-03T06:00:00Z,26.2168,-96.4998,4.0,5.1,64.5,7.13,'11111222,11111222,11111222' 
TABS,ioos:station:wmo:42045:1,2019-11-03T07:00:00Z,26.2168,-96.4998,4.0,4.54,60.3,6.44,'11111222,11111222,11111222' 
TABS,ioos:station:wmo:42045:1,2019-11-03T07:30:00Z,26.2168,-96.4998,4.0,4.13,54.4,5.79,'11111222,11111222,11111222' 
TABS,ioos:station:wmo:42045:1,2019-11-03T09:00:00Z,26.2168,-96.4998,4.0,3.17,71.8,5.01,'11111222,11111222,11111222' 
TABS,ioos:station:wmo:42045:1,2019-11-03T10:00:00Z,26.2168,-96.4998,4.0,2.81,59.7,5.04,'11111222,11111222,11111222' 
TABS,ioos:station:wmo:42045:1,2019-11-03T11:00:00Z,26.2168,-96.4998,4.0,3.95,72.2,5.46,'11111222,11111222,11111222' 
TABS,ioos:station:wmo:42045:1,2019-11-03T12:00:00Z,26.2168,-96.4998,4.0,3.46,37.8,5.22,'11111222,11111222,11111222' 
TABS,ioos:station:wmo:42045:1,2019-11-03T13:00:00Z,26.2168,-96.4998,4.0,4.45,58.6,6.63,'11111222,11111222,11111222' 
TABS,ioos:station:wmo:42045:1,2019-11-03T13:30:00Z,26.2168,-96.4998,4.0,4.36,70.2,6.25,'11111222,11111222,11111222' 
TABS,ioos:station:wmo:42045:1,2019-11-03T15:00:00Z,26.2168,-96.4998,4.0,3.47,71.1,5.11,'11111222,11111222,11111222' 
TABS,ioos:station:wmo:42045:1,2019-11-03T16:00:00Z,26.2168,-96.4998,4.0,3.73,73.8,5.43,'11111222,11111222,11111222' 
TABS,ioos:station:wmo:42045:1,2019-11-03T17:00:00Z,26.2168,-96.4998,4.0,2.96,98.4,5.54,'11111222,11111222,11111222' 
TABS,ioos:station:wmo:42045:1,2019-11-03T18:00:00Z,26.2168,-96.4998,4.0,2.78,117.7,4.64,'11111222,11111222,11111222' 
TABS,ioos:station:wmo:42045:1,2019-11-03T19:00:00Z,26.2168,-96.4998,4.0,2.96,96.5,4.37,'11111222,11111222,11111222' 
TABS,ioos:station:wmo:42045:1,2019-11-03T20:00:00Z,26.2168,-96.4998,4.0,2.18,157.8,3.74,'11111222,11111222,11111222' 
TABS,ioos:station:wmo:42045:1,2019-11-03T21:00:00Z,26.2168,-96.4998,4.0,2.59,127.8,3.84,'11111222,11111222,11111222' 
TABS,ioos:station:wmo:42045:1,2019-11-03T22:00:00Z,26.2168,-96.4998,4.0,2.82,97.2,4.74,'11111222,11111222,11111222' 
TABS,ioos:station:wmo:42045:1,2019-11-03T23:00:00Z,26.2168,-96.4998,4.0,2.99,138.2,5.07,'11111222,11111222,11111222' 
TABS,ioos:station:wmo:42045:1,2019-11-03T23:30:00Z,26.2168,-96.4998,4.0,4.0,149.2,5.28,'11111222,11111222,11111222' 
TABS,ioos:station:wmo:42045:1,2019-11-04T05:00:00Z,26.2168,-96.4998,4.0,2.95,162.7,4.35,'11111222,11111222,11111222' 
TABS,ioos:station:wmo:42045:1,2019-11-04T15:30:00Z,26.2168,-96.4998,4.0,4.6,162.2,6.13,'11111222,11111222,11111222' 
TABS,ioos:station:wmo:42045:1,2019-11-04T16:00:00Z,26.2168,-96.4998,4.0,4.5,164.9,6.11,'11111222,11111222,11111222' 
TABS,ioos:station:wmo:42045:1,2019-11-04T17:00:00Z,26.2168,-96.4998,4.0,4.32,155.9,5.83,'11111222,11111222,11111222' 
TABS,ioos:station:wmo:42045:1,2019-11-04T18:00:00Z,26.2168,-96.4998,4.0,4.23,147.9,5.59,'11111222,11111222,11111222' 
TABS,ioos:station:wmo:42045:1,2019-11-04T19:00:00Z,26.2168,-96.4998,4.0,4.09,153.0,5.21,'11111222,11111222,11111222' 
TABS,ioos:station:wmo:42045:1,2019-11-04T20:00:00Z,26.2168,-96.4998,4.0,4.46,154.8,5.55,'11111222,11111222,11111222' 
TABS,ioos:station:wmo:42045:1,2019-11-04T21:00:00Z,26.2168,-96.4998,4.0,5.51,144.8,6.92,'11111222,11111222,11111222' 
TABS,ioos:station:wmo:42045:1,2019-11-04T22:00:00Z,26.2168,-96.4998,4.0,5.98,146.4,7.56,'11111222,11111222,11111222' 
TABS,ioos:station:wmo:42045:1,2019-11-04T23:00:00Z,26.2168,-96.4998,4.0,6.52,143.7,8.13,'11111222,11111222,11111222' 
TABS,ioos:station:wmo:42045:1,2019-11-04T23:30:00Z,26.2168,-96.4998,4.0,6.12,144.7,7.46,'11111222,11111222,11111222' 
TABS,ioos:station:wmo:42045:1,2019-11-05T04:30:00Z,26.2168,-96.4998,4.0,6.42,145.1,7.36,'11111222,11111222,11111222' 
TABS,ioos:station:wmo:42045:1,2019-11-05T06:00:00Z,26.2168,-96.4998,4.0,6.63,156.1,8.17,'11111222,11111222,11111222' 
TABS,ioos:station:wmo:42045:1,2019-11-05T07:00:00Z,26.2168,-96.4998,4.0,6.54,160.7,7.62,'11111222,11111222,11111222' 
TABS,ioos:station:wmo:42045:1,2019-11-05T08:00:00Z,26.2168,-96.4998,4.0,6.71,171.7,7.93,'11111222,11111222,11111222' 
TABS,ioos:station:wmo:42045:1,2019-11-05T09:00:00Z,26.2168,-96.4998,4.0,5.96,182.0,7.19,'11111222,11111222,11111222' 
TABS,ioos:station:wmo:42045:1,2019-11-05T10:00:00Z,26.2168,-96.4998,4.0,4.33,181.5,5.5,'11111222,11111222,11111222' 
TABS,ioos:station:wmo:42045:1,2019-11-05T11:00:00Z,26.2168,-96.4998,4.0,4.06,175.9,5.0,'11111222,11111222,11111222' 
TABS,ioos:station:wmo:42045:1,2019-11-05T12:00:00Z,26.2168,-96.4998,4.0,3.9,167.0,4.75,'11111222,11111222,11111222' 
TABS,ioos:station:wmo:42045:1,2019-11-05T13:00:00Z,26.2168,-96.4998,4.0,3.52,156.8,4.24,'11111222,11111222,11111222' 
TABS,ioos:station:wmo:42045:1,2019-11-05T13:30:00Z,26.2168,-96.4998,4.0,3.45,146.6,4.33,'11111222,11111222,11111222' 
TABS,ioos:station:wmo:42045:1,2019-11-05T15:00:00Z,26.2168,-96.4998,4.0,2.89,123.5,3.67,'11111222,11111222,11111222' 
TABS,ioos:station:wmo:42045:1,2019-11-05T15:30:00Z,26.2168,-96.4998,4.0,3.6,111.7,4.52,'11111222,11111222,11111222' 
TABS,ioos:station:wmo:42045:1,2019-11-05T17:00:00Z,26.2168,-96.4998,4.0,3.26,107.3,4.15,'11111222,11111222,11111222' 
TABS,ioos:station:wmo:42045:1,2019-11-05T18:00:00Z,26.2168,-96.4998,4.0,3.51,101.5,4.59,'11111222,11111222,11111222' 
TABS,ioos:station:wmo:42045:1,2019-11-05T19:00:00Z,26.2168,-96.4998,4.0,5.05,114.5,6.1,'11111222,11111222,11111222' 
TABS,ioos:station:wmo:42045:1,2019-11-05T20:00:00Z,26.2168,-96.4998,4.0,5.51,116.1,6.71,'11111222,11111222,11111222' 
TABS,ioos:station:wmo:42045:1,2019-11-05T21:00:00Z,26.2168,-96.4998,4.0,6.07,114.1,7.53,'11111222,11111222,11111222' 
TABS,ioos:station:wmo:42045:1,2019-11-05T22:00:00Z,26.2168,-96.4998,4.0,6.07,117.6,7.12,'11111222,11111222,11111222' 
TABS,ioos:station:wmo:42045:1,2019-11-05T23:00:00Z,26.2168,-96.4998,4.0,5.74,74.2,7.3,'11111222,11111222,11111222' 
TABS,ioos:station:wmo:42045:1,2019-11-05T23:30:00Z,26.2168,-96.4998,4.0,3.22,61.6,5.29,'11111222,11111222,11111222' 
TABS,ioos:station:wmo:42045:1,2019-11-06T05:00:00Z,26.2168,-96.4998,4.0,6.33,110.0,7.61,'11111222,11111222,11111222' 
TABS,ioos:station:wmo:42045:1,2019-11-06T06:00:00Z,26.2168,-96.4998,4.0,6.62,114.4,7.9,'11111222,11111222,11111222' 
TABS,ioos:station:wmo:42045:1,2019-11-06T06:30:00Z,26.2168,-96.4998,4.0,6.14,111.7,7.25,'11111222,11111222,11111222' 
TABS,ioos:station:wmo:42045:1,2019-11-06T08:00:00Z,26.2168,-96.4998,4.0,6.82,102.0,8.19,'11111222,11111222,11111222' 
TABS,ioos:station:wmo:42045:1,2019-11-06T09:00:00Z,26.2168,-96.4998,4.0,6.84,102.5,8.68,'11111222,11111222,11111222' 
TABS,ioos:station:wmo:42045:1,2019-11-06T10:00:00Z,26.2168,-96.4998,4.0,6.47,107.6,7.97,'11111222,11111222,11111222' 
TABS,ioos:station:wmo:42045:1,2019-11-06T11:00:00Z,26.2168,-96.4998,4.0,6.37,102.4,7.72,'11111222,11111222,11111222' 
TABS,ioos:station:wmo:42045:1,2019-11-06T12:00:00Z,26.2168,-96.4998,4.0,6.48,104.8,8.07,'11111222,11111222,11111222' 
TABS,ioos:station:wmo:42045:1,2019-11-06T13:00:00Z,26.2168,-96.4998,4.0,6.46,95.0,8.5,'11111222,11111222,11111222' 
TABS,ioos:station:wmo:42045:1,2019-11-06T14:00:00Z,26.2168,-96.4998,4.0,6.19,92.8,7.88,'11111222,11111222,11111222' 
TABS,ioos:station:wmo:42045:1,2019-11-06T15:00:00Z,26.2168,-96.4998,4.0,6.46,102.7,7.51,'11111222,11111222,11111222' 
TABS,ioos:station:wmo:42045:1,2019-11-06T16:00:00Z,26.2168,-96.4998,4.0,5.85,108.0,7.18,'11111222,11111222,11111222' 
TABS,ioos:station:wmo:42045:1,2019-11-06T17:00:00Z,26.2168,-96.4998,4.0,6.02,111.0,7.09,'11111222,11111222,11111222' 
TABS,ioos:station:wmo:42045:1,2019-11-06T17:30:00Z,26.2168,-96.4998,4.0,5.33,107.4,6.81,'11111222,11111222,11111222' 
TABS,ioos:station:wmo:42045:1,2019-11-06T18:30:00Z,26.2168,-96.4998,4.0,4.95,104.8,6.34,'11111222,11111222,11111222' 
TABS,ioos:station:wmo:42045:1,2019-11-06T20:00:00Z,26.2168,-96.4998,4.0,5.08,108.4,6.26,'11111222,11111222,11111222' 
TABS,ioos:station:wmo:42045:1,2019-11-06T21:00:00Z,26.2168,-96.4998,4.0,5.36,108.9,6.48,'11111222,11111222,11111222' 
TABS,ioos:station:wmo:42045:1,2019-11-06T22:00:00Z,26.2168,-96.4998,4.0,5.22,103.8,6.53,'11111222,11111222,11111222' 
TABS,ioos:station:wmo:42045:1,2019-11-06T23:00:00Z,26.2168,-96.4998,4.0,5.49,100.7,6.61,'11111222,11111222,11111222' 
TABS,ioos:station:wmo:42045:1,2019-11-06T23:30:00Z,26.2168,-96.4998,4.0,5.69,100.6,6.86,'11111222,11111222,11111222' 
TABS,ioos:station:wmo:42045:1,2019-11-07T04:00:00Z,26.2168,-96.4998,4.0,6.36,122.9,7.83,'11111222,11111222,11111222' 
TABS,ioos:station:wmo:42045:1,2019-11-07T05:30:00Z,26.2168,-96.4998,4.0,5.95,139.5,7.19,'11111222,11111222,11111222' 
TABS,ioos:station:wmo:42045:1,2019-11-07T07:00:00Z,26.2168,-96.4998,4.0,6.17,140.9,7.36,'11111222,11111222,11111222' 
TABS,ioos:station:wmo:42045:1,2019-11-07T08:00:00Z,26.2168,-96.4998,4.0,5.26,143.8,6.4,'11111222,11111222,11111222' 
TABS,ioos:station:wmo:42045:1,2019-11-07T09:00:00Z,26.2168,-96.4998,4.0,5.71,145.5,6.84,'11111222,11111222,11111222' 
TABS,ioos:station:wmo:42045:1,2019-11-07T10:00:00Z,26.2168,-96.4998,4.0,5.22,137.4,6.62,'11111222,11111222,11111222' 
TABS,ioos:station:wmo:42045:1,2019-11-07T11:00:00Z,26.2168,-96.4998,4.0,5.06,137.1,6.02,'11111222,11111222,11111222' 
TABS,ioos:station:wmo:42045:1,2019-11-07T12:00:00Z,26.2168,-96.4998,4.0,5.27,142.0,6.56,'11111222,11111222,11111222' 
TABS,ioos:station:wmo:42045:1,2019-11-07T13:00:00Z,26.2168,-96.4998,4.0,4.7,147.0,5.86,'11111222,11111222,11111222' 
TABS,ioos:station:wmo:42045:1,2019-11-07T14:00:00Z,26.2168,-96.4998,4.0,4.09,155.9,4.99,'11111222,11111222,11111222' 
TABS,ioos:station:wmo:42045:1,2019-11-07T15:00:00Z,26.2168,-96.4998,4.0,3.99,157.1,5.03,'11111222,11111222,11111222' 
TABS,ioos:station:wmo:42045:1,2019-11-07T16:00:00Z,26.2168,-96.4998,4.0,3.72,161.4,4.7,'11111222,11111222,11111222' 
TABS,ioos:station:wmo:42045:1,2019-11-07T17:00:00Z,26.2168,-96.4998,4.0,3.82,162.7,5.02,'11111222,11111222,11111222' 
TABS,ioos:station:wmo:42045:1,2019-11-07T18:00:00Z,26.2168,-96.4998,4.0,2.68,170.1,3.43,'11111222,11111222,11111222' 
TABS,ioos:station:wmo:42045:1,2019-11-07T18:30:00Z,26.2168,-96.4998,4.0,1.56,170.7,2.15,'11111222,11111222,11111222' 
TABS,ioos:station:wmo:42045:1,2019-11-07T20:00:00Z,26.2168,-96.4998,4.0,1.51,151.7,1.89,'11111222,11111222,11111222' 
TABS,ioos:station:wmo:42045:1,2019-11-07T21:00:00Z,26.2168,-96.4998,4.0,2.1,150.9,2.58,'11111222,11111222,11111222' 
TABS,ioos:station:wmo:42045:1,2019-11-07T22:00:00Z,26.2168,-96.4998,4.0,1.01,163.6,1.37,'11111222,11111222,11111222' 
TABS,ioos:station:wmo:42045:1,2019-11-07T23:00:00Z,26.2168,-96.4998,4.0,1.68,131.8,2.14,'11111222,11111222,11111222' 
TABS,ioos:station:wmo:42045:1,2019-11-07T23:30:00Z,26.2168,-96.4998,4.0,0.43,123.0,1.0,'11111222,11111222,11111222' 
TABS,ioos:station:wmo:42045:1,2019-11-08T05:00:00Z,26.2168,-96.4998,4.0,7.88,23.6,9.15,'11111222,11111222,11111222' 
TABS,ioos:station:wmo:42045:1,2019-11-08T06:00:00Z,26.2168,-96.4998,4.0,8.32,31.9,9.84,'11111222,11111222,11111222' 
TABS,ioos:station:wmo:42045:1,2019-11-08T07:00:00Z,26.2168,-96.4998,4.0,8.7,18.4,10.11,'11111222,11111222,11111222' 
TABS,ioos:station:wmo:42045:1,2019-11-08T08:00:00Z,26.2168,-96.4998,4.0,9.19,18.5,11.45,'11111222,11111222,11111222' 
TABS,ioos:station:wmo:42045:1,2019-11-08T09:00:00Z,26.2168,-96.4998,4.0,9.68,18.4,11.84,'11111222,11111222,11111222' 
TABS,ioos:station:wmo:42045:1,2019-11-08T10:00:00Z,26.2168,-96.4998,4.0,10.34,10.3,12.31,'11111222,11111222,11111222' 
TABS,ioos:station:wmo:42045:1,2019-11-08T11:00:00Z,26.2168,-96.4998,4.0,10.08,8.5,12.22,'11111222,11111222,11111222' 
TABS,ioos:station:wmo:42045:1,2019-11-08T12:00:00Z,26.2168,-96.4998,4.0,9.85,357.2,11.86,'11111222,11111222,11111222' 
TABS,ioos:station:wmo:42045:1,2019-11-08T13:00:00Z,26.2168,-96.4998,4.0,10.25,350.2,12.0,'11111222,11111222,11111222' 
TABS,ioos:station:wmo:42045:1,2019-11-08T13:30:00Z,26.2168,-96.4998,4.0,10.06,346.7,12.54,'11111222,11111222,11111222' 
TABS,ioos:station:wmo:42045:1,2019-11-08T14:30:00Z,26.2168,-96.4998,4.0,9.62,357.4,11.21,'11111222,11111222,11111222' 
TABS,ioos:station:wmo:42045:1,2019-11-08T16:00:00Z,26.2168,-96.4998,4.0,9.19,354.7,11.3,'11111222,11111222,11111222' 
TABS,ioos:station:wmo:42045:1,2019-11-08T17:00:00Z,26.2168,-96.4998,4.0,8.79,349.0,10.82,'11111222,11111222,11111222' 
TABS,ioos:station:wmo:42045:1,2019-11-08T18:00:00Z,26.2168,-96.4998,4.0,8.89,343.7,10.7,'11111222,11111222,11111222' 
TABS,ioos:station:wmo:42045:1,2019-11-08T19:00:00Z,26.2168,-96.4998,4.0,8.92,338.5,10.68,'11111222,11111222,11111222' 
TABS,ioos:station:wmo:42045:1,2019-11-08T20:00:00Z,26.2168,-96.4998,4.0,9.26,340.8,11.17,'11111222,11111222,11111222' 
TABS,ioos:station:wmo:42045:1,2019-11-08T20:30:00Z,26.2168,-96.4998,4.0,9.6,344.6,11.36,'11111222,11111222,11111222' 
TABS,ioos:station:wmo:42045:1,2019-11-08T22:00:00Z,26.2168,-96.4998,4.0,9.74,349.2,12.33,'11111222,11111222,11111222' 
TABS,ioos:station:wmo:42045:1,2019-11-08T23:00:00Z,26.2168,-96.4998,4.0,9.51,346.6,11.69,'11111222,11111222,11111222' 
TABS,ioos:station:wmo:42045:1,2019-11-08T23:30:00Z,26.2168,-96.4998,4.0,9.54,351.5,11.41,'11111222,11111222,11111222' 
TABS,ioos:station:wmo:42045:1,2019-11-09T05:00:00Z,26.2168,-96.4998,4.0,8.16,354.9,10.18,'11111222,11111222,11111222' 
TABS,ioos:station:wmo:42045:1,2019-11-09T06:00:00Z,26.2168,-96.4998,4.0,7.34,356.5,9.76,'11111222,11111222,11111222' 
TABS,ioos:station:wmo:42045:1,2019-11-09T07:00:00Z,26.2168,-96.4998,4.0,7.13,359.6,9.22,'11111222,11144222,11111222' 
TABS,ioos:station:wmo:42045:1,2019-11-09T09:00:00Z,26.2168,-96.4998,4.0,7.8,357.5,9.53,'11111222,11111222,11111222' 
TABS,ioos:station:wmo:42045:1,2019-11-09T09:30:00Z,26.2168,-96.4998,4.0,6.81,0.1,8.99,'11111222,11111222,11111222' 
TABS,ioos:station:wmo:42045:1,2019-11-09T10:30:00Z,26.2168,-96.4998,4.0,6.57,6.1,8.36,'11111222,11111222,11111222' 
TABS,ioos:station:wmo:42045:1,2019-11-09T11:30:00Z,26.2168,-96.4998,4.0,6.73,359.4,8.88,'11111222,11144222,11111222' 
TABS,ioos:station:wmo:42045:1,2019-11-09T12:30:00Z,26.2168,-96.4998,4.0,6.33,16.2,8.09,'11111222,11111222,11111222' 
TABS,ioos:station:wmo:42045:1,2019-11-09T14:00:00Z,26.2168,-96.4998,4.0,6.18,8.3,7.47,'11111222,11111222,11111222' 
TABS,ioos:station:wmo:42045:1,2019-11-09T14:30:00Z,26.2168,-96.4998,4.0,6.31,14.3,7.93,'11111222,11111222,11111222' 
TABS,ioos:station:wmo:42045:1,2019-11-09T15:30:00Z,26.2168,-96.4998,4.0,5.85,19.2,7.47,'11111222,11111222,11111222' 
TABS,ioos:station:wmo:42045:1,2019-11-09T17:00:00Z,26.2168,-96.4998,4.0,4.75,34.8,6.09,'11111222,11111222,11111222' 
TABS,ioos:station:wmo:42045:1,2019-11-09T19:00:00Z,26.2168,-96.4998,4.0,5.41,18.0,7.21,'11111222,11111222,11111222' 
TABS,ioos:station:wmo:42045:1,2019-11-09T20:00:00Z,26.2168,-96.4998,4.0,5.97,16.1,7.7,'11111222,11111222,11111222' 
TABS,ioos:station:wmo:42045:1,2019-11-09T21:00:00Z,26.2168,-96.4998,4.0,5.38,16.4,6.97,'11111222,11111222,11111222' 
TABS,ioos:station:wmo:42045:1,2019-11-09T22:00:00Z,26.2168,-96.4998,4.0,4.5,16.8,6.06,'11111222,11111222,11111222' 
TABS,ioos:station:wmo:42045:1,2019-11-09T23:00:00Z,26.2168,-96.4998,4.0,4.73,32.8,6.44,'11111222,11111222,11111222' 
TABS,ioos:station:wmo:42045:1,2019-11-09T23:30:00Z,26.2168,-96.4998,4.0,4.33,37.8,5.95,'11111222,11111222,11111222' 
TABS,ioos:station:wmo:42045:1,2019-11-10T05:00:00Z,26.2168,-96.4998,4.0,3.69,75.6,5.39,'11111222,11111222,11111222' 
TABS,ioos:station:wmo:42045:1,2019-11-10T06:00:00Z,26.2168,-96.4998,4.0,2.79,78.4,4.32,'11111222,11111222,11111222' 
TABS,ioos:station:wmo:42045:1,2019-11-10T07:00:00Z,26.2168,-96.4998,4.0,3.24,98.6,4.87,'11111222,11111222,11111222' 
TABS,ioos:station:wmo:42045:1,2019-11-10T08:00:00Z,26.2168,-96.4998,4.0,2.73,107.4,4.21,'11111222,11111222,11111222' 
TABS,ioos:station:wmo:42045:1,2019-11-10T09:00:00Z,26.2168,-96.4998,4.0,2.19,115.3,4.07,'11111222,11111222,11111222' 
TABS,ioos:station:wmo:42045:1,2019-11-10T10:00:00Z,26.2168,-96.4998,4.0,2.77,118.0,3.9,'11111222,11111222,11111222' 
TABS,ioos:station:wmo:42045:1,2019-11-10T11:00:00Z,26.2168,-96.4998,4.0,2.73,128.0,4.07,'11111222,11111222,11111222' 
TABS,ioos:station:wmo:42045:1,2019-11-10T12:00:00Z,26.2168,-96.4998,4.0,3.06,128.4,4.44,'11111222,11111222,11111222' 
TABS,ioos:station:wmo:42045:1,2019-11-10T13:00:00Z,26.2168,-96.4998,4.0,2.49,162.8,4.21,'11111222,11111222,11111222' 
TABS,ioos:station:wmo:42045:1,2019-11-10T14:00:00Z,26.2168,-96.4998,4.0,2.76,151.1,4.19,'11111222,11111222,11111222' 
TABS,ioos:station:wmo:42045:1,2019-11-10T15:00:00Z,26.2168,-96.4998,4.0,2.32,131.4,3.68,'11111222,11111222,11111222' 
TABS,ioos:station:wmo:42045:1,2019-11-10T16:00:00Z,26.2168,-96.4998,4.0,2.25,135.9,3.28,'11111222,11111222,11111222' 
TABS,ioos:station:wmo:42045:1,2019-11-10T16:30:00Z,26.2168,-96.4998,4.0,2.64,160.9,4.05,'11111222,11111222,11111222' 
TABS,ioos:station:wmo:42045:1,2019-11-10T18:00:00Z,26.2168,-96.4998,4.0,3.43,148.0,4.91,'11111222,11111222,11111222' 
TABS,ioos:station:wmo:42045:1,2019-11-10T19:00:00Z,26.2168,-96.4998,4.0,3.46,154.0,4.8,'11111222,11111222,11111222' 
TABS,ioos:station:wmo:42045:1,2019-11-10T20:00:00Z,26.2168,-96.4998,4.0,3.69,146.7,5.27,'11111222,11111222,11111222' 
TABS,ioos:station:wmo:42045:1,2019-11-10T21:00:00Z,26.2168,-96.4998,4.0,4.11,136.4,5.56,'11111222,11111222,11111222' 
TABS,ioos:station:wmo:42045:1,2019-11-10T22:00:00Z,26.2168,-96.4998,4.0,4.97,135.9,6.71,'11111222,11111222,11111222' 
TABS,ioos:station:wmo:42045:1,2019-11-10T23:00:00Z,26.2168,-96.4998,4.0,5.35,133.9,7.11,'11111222,11111222,11111222' 
TABS,ioos:station:wmo:42045:1,2019-11-10T23:30:00Z,26.2168,-96.4998,4.0,5.8,133.6,7.52,'11111222,11111222,11111222' 
TABS,ioos:station:wmo:42045:1,2019-11-11T05:00:00Z,26.2168,-96.4998,4.0,5.91,166.0,7.44,'11111222,11111222,11111222' 
TABS,ioos:station:wmo:42045:1,2019-11-11T06:00:00Z,26.2168,-96.4998,4.0,6.61,169.0,8.14,'11111222,11111222,11111222' 
TABS,ioos:station:wmo:42045:1,2019-11-11T07:00:00Z,26.2168,-96.4998,4.0,6.82,165.1,8.42,'11111222,11111222,11111222' 
TABS,ioos:station:wmo:42045:1,2019-11-11T08:00:00Z,26.2168,-96.4998,4.0,7.11,164.5,8.5,'11111222,11111222,11111222' 
TABS,ioos:station:wmo:42045:1,2019-11-11T09:00:00Z,26.2168,-96.4998,4.0,6.82,161.2,8.19,'11111222,11111222,11111222' 
TABS,ioos:station:wmo:42045:1,2019-11-11T10:00:00Z,26.2168,-96.4998,4.0,6.51,166.5,8.35,'11111222,11111222,11111222' 
TABS,ioos:station:wmo:42045:1,2019-11-11T11:00:00Z,26.2168,-96.4998,4.0,6.75,163.4,8.26,'11111222,11111222,11111222' 
TABS,ioos:station:wmo:42045:1,2019-11-11T12:00:00Z,26.2168,-96.4998,4.0,6.78,168.4,8.48,'11111222,11111222,11111222' 
TABS,ioos:station:wmo:42045:1,2019-11-11T13:00:00Z,26.2168,-96.4998,4.0,6.08,172.0,7.4,'11111222,11111222,11111222' 
TABS,ioos:station:wmo:42045:1,2019-11-11T14:00:00Z,26.2168,-96.4998,4.0,6.62,178.5,7.93,'11111222,11111222,11111222' 
TABS,ioos:station:wmo:42045:1,2019-11-11T15:00:00Z,26.2168,-96.4998,4.0,6.12,172.6,7.49,'11111222,11111222,11111222' 
TABS,ioos:station:wmo:42045:1,2019-11-11T16:00:00Z,26.2168,-96.4998,4.0,5.79,162.9,7.17,'11111222,11111222,11111222' 
TABS,ioos:station:wmo:42045:1,2019-11-11T17:00:00Z,26.2168,-96.4998,4.0,5.84,161.2,7.15,'11111222,11111222,11111222' 